Starlink 32165

operational
NORAD ID: 60599 Int'l Des: 2024-150 Owner: SPXS Country: US Constellation: starlink
LEOCIRCULAR

关于 Starlink 32165

正在加载描述...

实时位置

正在加载3D地球...

即将过境

高度历史

Altitude vs Time

uPlot chart will show altitude changes over time

两行轨道根数

1 60599U 24150S 25259.86143305 -.00000737 00000-0 -12772-4 0 9996
2 60599 53.1612 34.7140 0001043 82.9538 277.1581 15.30180968 61426
Epoch: Sep 16, 2025 • Age: 28 hours

当前状态

高度 480.2 km
速度 7.63 km/s
星下点 -16.94°S, 137.65°W
发射日期 Aug 20, 2024
运行时间 1 years
类型 internet

技术详情

分类 Payload
质量 730.00 kg
干质量 700.00 kg
总质量 730.00 kg
长度 0.30 m
直径 4.10 m
跨度 29.00 m
形状 Box + pan
制造商 SPXS
平台类型 Starlink V2M
阶段状态 In Orbit
所有者/国家 SPXS/US

大型星座

Loading constellations...